OAS097 SKBO-SCEL

Flight info

Callsign OAS097
Flight time 4h 18m
Altitude 36000
Route LIXA4U LIXAG DCT PULTU UL305 JCL UL302 TOY DCT EMBAL UV204 SIMOK SIMO7B
Aircraft B77W/H-SDE1E2E3FGHIJ2J3J4J5M1RWXY/LB1D1

Departure

Time 2026-05-04 12:32
Airport El Dorado International Airport (SKBO)

Arrival

Time 2026-05-04 16:51
Airport Comodoro Arturo Merino Benítez International Airport (SCEL)
Time Latitude Longitude Altitude Speed Heading
2026-05-04 12:05 4.69906 -74.14005 8371 ft 0 kts 217°
2026-05-04 12:17 4.69911 -74.14001 8370 ft 3 kts 217°
2026-05-04 12:18 4.69926 -74.13989 8371 ft 3 kts 217°
2026-05-04 12:18 4.69942 -74.13978 8371 ft 3 kts 217°
2026-05-04 12:18 4.69957 -74.13967 8371 ft 3 kts 217°
2026-05-04 12:18 4.69971 -74.13956 8371 ft 3 kts 217°
2026-05-04 12:19 4.69972 -74.13956 8371 ft 0 kts 217°
2026-05-04 12:21 4.69969 -74.13958 8371 ft 3 kts 218°
2026-05-04 12:21 4.69968 -74.13981 8371 ft 4 kts 300°
2026-05-04 12:22 4.69989 -74.14001 8371 ft 4 kts 317°
2026-05-04 12:22 4.70015 -74.14021 8371 ft 6 kts 333°
2026-05-04 12:22 4.70069 -74.14013 8371 ft 10 kts 27°
2026-05-04 12:22 4.70138 -74.13974 8371 ft 9 kts
2026-05-04 12:23 4.70177 -74.13996 8371 ft 8 kts 318°
2026-05-04 12:23 4.70224 -74.14058 8371 ft 13 kts 308°
2026-05-04 12:23 4.70279 -74.14129 8371 ft 13 kts 306°
2026-05-04 12:23 4.70332 -74.14203 8371 ft 13 kts 306°
2026-05-04 12:24 4.70386 -74.14274 8371 ft 13 kts 307°
2026-05-04 12:24 4.70441 -74.14346 8372 ft 13 kts 307°
2026-05-04 12:24 4.70492 -74.14420 8372 ft 13 kts 291°
2026-05-04 12:24 4.70446 -74.14490 8372 ft 13 kts 216°
2026-05-04 12:25 4.70374 -74.14544 8371 ft 13 kts 217°
2026-05-04 12:25 4.70302 -74.14599 8371 ft 13 kts 217°
2026-05-04 12:25 4.70230 -74.14653 8371 ft 13 kts 217°
2026-05-04 12:25 4.70149 -74.14714 8371 ft 15 kts 216°
2026-05-04 12:26 4.70064 -74.14776 8371 ft 15 kts 216°
2026-05-04 12:26 4.69979 -74.14839 8371 ft 15 kts 217°
2026-05-04 12:26 4.69896 -74.14903 8371 ft 15 kts 216°
2026-05-04 12:26 4.69849 -74.14961 8371 ft 4 kts 280°
2026-05-04 12:27 4.69865 -74.14992 8371 ft 7 kts 306°
2026-05-04 12:27 4.69898 -74.15034 8371 ft 8 kts 308°
2026-05-04 12:27 4.69940 -74.15089 8371 ft 13 kts 307°
2026-05-04 12:27 4.70007 -74.15177 8371 ft 19 kts 307°
2026-05-04 12:28 4.70098 -74.15296 8371 ft 24 kts 307°
2026-05-04 12:28 4.70196 -74.15427 8370 ft 24 kts 307°
2026-05-04 12:28 4.70295 -74.15559 8371 ft 24 kts 307°
2026-05-04 12:28 4.70394 -74.15691 8370 ft 24 kts 307°
2026-05-04 12:29 4.70493 -74.15821 8371 ft 24 kts 309°
2026-05-04 12:29 4.70593 -74.15952 8371 ft 24 kts 307°
2026-05-04 12:29 4.70692 -74.16083 8371 ft 24 kts 307°
2026-05-04 12:29 4.70792 -74.16213 8371 ft 24 kts 307°
2026-05-04 12:30 4.70890 -74.16345 8371 ft 24 kts 307°
2026-05-04 12:30 4.70988 -74.16474 8371 ft 24 kts 308°
2026-05-04 12:30 4.71088 -74.16605 8371 ft 24 kts 307°
2026-05-04 12:30 4.71187 -74.16736 8371 ft 24 kts 308°
2026-05-04 12:31 4.71230 -74.16857 8371 ft 17 kts 241°
2026-05-04 12:31 4.71128 -74.16893 8368 ft 20 kts 175°
2026-05-04 12:31 4.70973 -74.16812 8369 ft 40 kts 128°
2026-05-04 12:31 4.70661 -74.16402 8370 ft 110 kts 127°
2026-05-04 12:32 4.70054 -74.15601 8369 ft 178 kts 127°
2026-05-04 12:32 4.68230 -74.13238 9504 ft 215 kts 136°
2026-05-04 12:32 4.66918 -74.12563 10359 ft 223 kts 171°
2026-05-04 12:33 4.65378 -74.12853 10550 ft 236 kts 210°
2026-05-04 12:33 4.64206 -74.14029 10823 ft 244 kts 239°
2026-05-04 12:33 4.63490 -74.15575 11245 ft 247 kts 248°
2026-05-04 12:33 4.62884 -74.17192 11659 ft 249 kts 248°
2026-05-04 12:34 4.62280 -74.18825 12126 ft 251 kts 249°
2026-05-04 12:34 4.61666 -74.20476 12483 ft 258 kts 249°
2026-05-04 12:34 4.61190 -74.22279 12596 ft 278 kts 258°
2026-05-04 12:34 4.60829 -74.24245 12759 ft 296 kts 259°
2026-05-04 12:35 4.60444 -74.26322 12986 ft 310 kts 254°
2026-05-04 12:35 4.59489 -74.28275 13144 ft 319 kts 226°
2026-05-04 12:35 4.57893 -74.29891 13296 ft 336 kts 223°
2026-05-04 12:35 4.56177 -74.31591 13457 ft 357 kts 224°
2026-05-04 12:36 4.54387 -74.33410 13598 ft 378 kts 224°
2026-05-04 12:36 4.52484 -74.35319 13769 ft 392 kts 220°
2026-05-04 12:36 4.50141 -74.36741 14112 ft 399 kts 198°
2026-05-04 12:36 4.47515 -74.37633 14473 ft 402 kts 201°
2026-05-04 12:37 4.44996 -74.38940 14880 ft 411 kts 210°
2026-05-04 12:37 4.42575 -74.40478 15495 ft 414 kts 212°
2026-05-04 12:37 4.40162 -74.42074 16129 ft 416 kts 212°
2026-05-04 12:37 4.37721 -74.43663 16705 ft 421 kts 211°
2026-05-04 12:38 4.35233 -74.45234 17245 ft 425 kts 211°
2026-05-04 12:38 4.32701 -74.46791 17781 ft 429 kts 210°
2026-05-04 12:38 4.30133 -74.48342 18330 ft 433 kts 210°
2026-05-04 12:38 4.27541 -74.49892 18780 ft 436 kts 210°
2026-05-04 12:39 4.24925 -74.51450 19248 ft 439 kts 210°
2026-05-04 12:39 4.22291 -74.53018 19710 ft 442 kts 210°
2026-05-04 12:39 4.19638 -74.54595 20182 ft 445 kts 210°
2026-05-04 12:39 4.16962 -74.56187 20640 ft 448 kts 210°
2026-05-04 12:40 4.14271 -74.57789 21085 ft 452 kts 210°
2026-05-04 12:40 4.11564 -74.59403 21535 ft 455 kts 210°
2026-05-04 12:40 4.08867 -74.61010 21932 ft 458 kts 209°
2026-05-04 12:40 4.06117 -74.62649 22354 ft 462 kts 209°
2026-05-04 12:41 4.03312 -74.64321 22797 ft 465 kts 209°
2026-05-04 12:41 4.00527 -74.65980 23223 ft 468 kts 209°
2026-05-04 12:41 3.97756 -74.67631 23608 ft 471 kts 209°
2026-05-04 12:41 3.94931 -74.69315 23943 ft 474 kts 209°
2026-05-04 12:42 3.92093 -74.71005 24300 ft 476 kts 209°
2026-05-04 12:42 3.89240 -74.72704 24630 ft 478 kts 209°
2026-05-04 12:42 3.86329 -74.74297 24972 ft 478 kts 201°
2026-05-04 12:42 3.83148 -74.75262 25241 ft 477 kts 191°
2026-05-04 12:43 3.79893 -74.75948 25518 ft 480 kts 189°
2026-05-04 12:43 3.76601 -74.76585 25843 ft 482 kts 189°
2026-05-04 12:43 3.73301 -74.77225 26177 ft 484 kts 189°
2026-05-04 12:43 3.69993 -74.77889 26507 ft 486 kts 190°
2026-05-04 12:44 3.66680 -74.78581 26825 ft 488 kts 190°
2026-05-04 12:44 3.63349 -74.79298 27116 ft 490 kts 191°
2026-05-04 12:44 3.60010 -74.80031 27410 ft 493 kts 191°
2026-05-04 12:44 3.56657 -74.80774 27677 ft 495 kts 191°
2026-05-04 12:45 3.53286 -74.81525 27976 ft 497 kts 191°
2026-05-04 12:45 3.49896 -74.82280 28260 ft 499 kts 191°
2026-05-04 12:45 3.46502 -74.83033 28531 ft 501 kts 191°
2026-05-04 12:45 3.43096 -74.83788 28794 ft 503 kts 191°
2026-05-04 12:46 3.39667 -74.84546 29036 ft 505 kts 191°
2026-05-04 12:46 3.36231 -74.85306 29282 ft 506 kts 191°
2026-05-04 12:46 3.32793 -74.86066 29604 ft 506 kts 191°
2026-05-04 12:46 3.29359 -74.86826 29952 ft 505 kts 191°
2026-05-04 12:47 3.25926 -74.87585 30312 ft 504 kts 191°
2026-05-04 12:47 3.22511 -74.88340 30652 ft 502 kts 191°
2026-05-04 12:47 3.19099 -74.89094 30967 ft 501 kts 191°
2026-05-04 12:47 3.15697 -74.89846 31271 ft 501 kts 191°
2026-05-04 12:48 3.12294 -74.90598 31567 ft 500 kts 191°
2026-05-04 12:48 3.08903 -74.91347 31889 ft 499 kts 191°
2026-05-04 12:48 3.05507 -74.92098 32206 ft 498 kts 191°
2026-05-04 12:48 3.02130 -74.92845 32519 ft 497 kts 191°
2026-05-04 12:49 2.98751 -74.93591 32830 ft 497 kts 191°
2026-05-04 12:49 2.95375 -74.94337 33135 ft 496 kts 191°
2026-05-04 12:49 2.92011 -74.95080 33429 ft 495 kts 191°
2026-05-04 12:49 2.88647 -74.95823 33715 ft 494 kts 191°
2026-05-04 12:50 2.85292 -74.96564 34000 ft 494 kts 191°
2026-05-04 12:50 2.81938 -74.97304 34256 ft 493 kts 191°
2026-05-04 12:50 2.78585 -74.98045 34492 ft 493 kts 191°
2026-05-04 12:50 2.75242 -74.98783 34707 ft 493 kts 191°
2026-05-04 12:51 2.71893 -74.99523 34935 ft 492 kts 191°
2026-05-04 12:51 2.68549 -75.00262 35150 ft 492 kts 191°
2026-05-04 12:51 2.65205 -75.01000 35354 ft 492 kts 191°
2026-05-04 12:51 2.61854 -75.01740 35506 ft 493 kts 191°
2026-05-04 12:52 2.58498 -75.02481 35615 ft 495 kts 191°
2026-05-04 12:52 2.51793 -75.03962 35812 ft 498 kts 191°
2026-05-04 12:52 2.48405 -75.04709 35933 ft 499 kts 191°
2026-05-04 12:53 2.45010 -75.05458 36009 ft 501 kts 191°
2026-05-04 12:53 2.38173 -75.06966 36095 ft 504 kts 191°
2026-05-04 12:54 2.31331 -75.08477 36092 ft 503 kts 191°
2026-05-04 12:54 2.24497 -75.09985 36089 ft 502 kts 191°
2026-05-04 12:55 2.17674 -75.11492 36095 ft 502 kts 191°
2026-05-04 12:55 2.10854 -75.12996 36092 ft 502 kts 191°
2026-05-04 12:56 2.04001 -75.14508 36093 ft 506 kts 191°
2026-05-04 12:56 1.97111 -75.16028 36072 ft 509 kts 191°
2026-05-04 12:57 1.90186 -75.17555 36073 ft 511 kts 191°
2026-05-04 12:57 1.83223 -75.19091 36066 ft 513 kts 191°
2026-05-04 12:58 1.76248 -75.20629 36057 ft 514 kts 191°
2026-05-04 12:58 1.69258 -75.22171 36056 ft 515 kts 191°
2026-05-04 12:59 1.63431 -75.23456 36050 ft 516 kts 191°
2026-05-04 12:59 1.56403 -75.25006 36048 ft 517 kts 191°
2026-05-04 13:00 1.49373 -75.26556 36044 ft 518 kts 191°
2026-05-04 13:00 1.42340 -75.28106 36032 ft 518 kts 191°
2026-05-04 13:01 1.35287 -75.29661 36048 ft 519 kts 191°
2026-05-04 13:01 1.28233 -75.31216 36037 ft 519 kts 191°
2026-05-04 13:02 1.21219 -75.32762 36038 ft 520 kts 191°
2026-05-04 13:02 1.14104 -75.34330 36040 ft 520 kts 191°
2026-05-04 13:03 1.07039 -75.35888 36037 ft 520 kts 191°
2026-05-04 13:03 1.00022 -75.37434 36031 ft 520 kts 191°
2026-05-04 13:04 0.92953 -75.38992 36032 ft 520 kts 191°
2026-05-04 13:04 0.85880 -75.40551 36031 ft 520 kts 191°
2026-05-04 13:05 0.78809 -75.42110 36038 ft 520 kts 191°
2026-05-04 13:05 0.71737 -75.43668 36038 ft 520 kts 191°
2026-05-04 13:06 0.64666 -75.45226 36031 ft 520 kts 191°
2026-05-04 13:06 0.57600 -75.46783 36040 ft 520 kts 191°
2026-05-04 13:07 0.50527 -75.48342 36035 ft 520 kts 191°
2026-05-04 13:07 0.43455 -75.49900 36034 ft 520 kts 191°
2026-05-04 13:08 0.36383 -75.51458 36040 ft 520 kts 191°
2026-05-04 13:08 0.29317 -75.53015 36035 ft 520 kts 191°
2026-05-04 13:09 0.22246 -75.54573 36036 ft 520 kts 191°
2026-05-04 13:09 0.15182 -75.56130 36036 ft 520 kts 191°
2026-05-04 13:10 0.08104 -75.57690 36033 ft 521 kts 191°
2026-05-04 13:10 0.00992 -75.59110 36033 ft 520 kts 188°
2026-05-04 13:11 -0.06145 -75.60272 36044 ft 520 kts 187°
2026-05-04 13:11 -0.13279 -75.61422 36038 ft 520 kts 187°
2026-05-04 13:12 -0.20369 -75.62611 36034 ft 519 kts 188°
2026-05-04 13:12 -0.27492 -75.63829 36036 ft 519 kts 188°
2026-05-04 13:13 -0.34613 -75.65049 36043 ft 519 kts 188°
2026-05-04 13:13 -0.41732 -75.66266 36034 ft 519 kts 188°
2026-05-04 13:14 -0.48852 -75.67482 36036 ft 519 kts 188°
2026-05-04 13:14 -0.55969 -75.68697 36025 ft 521 kts 188°
2026-05-04 13:15 -0.63133 -75.69920 36015 ft 524 kts 188°
2026-05-04 13:15 -0.70291 -75.71142 36297 ft 517 kts 188°
2026-05-04 13:15 -0.73811 -75.71744 36745 ft 508 kts 188°
2026-05-04 13:16 -0.77272 -75.72336 37089 ft 504 kts 188°
2026-05-04 13:16 -0.84214 -75.73521 37041 ft 506 kts 188°
2026-05-04 13:17 -0.91164 -75.74706 37045 ft 506 kts 188°
2026-05-04 13:17 -0.98103 -75.75891 37044 ft 507 kts 188°
2026-05-04 13:18 -1.05070 -75.77080 37039 ft 509 kts 188°
2026-05-04 13:18 -1.12064 -75.78274 37040 ft 510 kts 188°
2026-05-04 13:19 -1.19082 -75.79473 37040 ft 512 kts 188°
2026-05-04 13:19 -1.26105 -75.80673 37046 ft 513 kts 188°
2026-05-04 13:20 -1.33151 -75.81876 37039 ft 514 kts 188°
2026-05-04 13:20 -1.40214 -75.83083 37036 ft 515 kts 188°
2026-05-04 13:21 -1.47280 -75.84290 37037 ft 516 kts 188°
2026-05-04 13:21 -1.54359 -75.85499 37034 ft 517 kts 188°
2026-05-04 13:22 -1.61451 -75.86711 37035 ft 517 kts 188°
2026-05-04 13:22 -1.68550 -75.87924 37037 ft 518 kts 188°
2026-05-04 13:23 -1.75650 -75.89137 37035 ft 518 kts 188°
2026-05-04 13:23 -1.82713 -75.90344 37039 ft 518 kts 188°
2026-05-04 13:24 -1.89825 -75.91560 37031 ft 518 kts 188°
2026-05-04 13:24 -1.96932 -75.92775 37031 ft 518 kts 188°
2026-05-04 13:25 -2.07694 -75.94066 37039 ft 516 kts 183°
2026-05-04 13:25 -2.14809 -75.94653 37032 ft 516 kts 183°
2026-05-04 13:26 -2.21963 -75.95262 37035 ft 516 kts 183°
2026-05-04 13:26 -2.29120 -75.95896 37034 ft 516 kts 184°
2026-05-04 13:27 -2.36268 -75.96538 37037 ft 516 kts 184°
2026-05-04 13:27 -2.43426 -75.97181 37028 ft 516 kts 184°
2026-05-04 13:28 -2.50573 -75.97820 37033 ft 516 kts 184°
2026-05-04 13:28 -2.57722 -75.98459 37030 ft 515 kts 184°
2026-05-04 13:29 -2.64863 -75.99098 37036 ft 515 kts 184°
2026-05-04 13:29 -2.72001 -75.99736 37033 ft 515 kts 184°
2026-05-04 13:30 -2.79136 -76.00375 37032 ft 515 kts 184°
2026-05-04 13:30 -2.86264 -76.01013 37035 ft 514 kts 184°
2026-05-04 13:31 -2.93388 -76.01650 37032 ft 514 kts 184°
2026-05-04 13:31 -3.00511 -76.02288 37032 ft 514 kts 184°
2026-05-04 13:32 -3.07635 -76.02926 37032 ft 514 kts 184°
2026-05-04 13:32 -3.14749 -76.03562 37031 ft 513 kts 184°
2026-05-04 13:33 -3.21864 -76.04199 37032 ft 513 kts 184°
2026-05-04 13:33 -3.28977 -76.04836 37032 ft 513 kts 184°
2026-05-04 13:34 -3.36092 -76.05474 37033 ft 513 kts 184°
2026-05-04 13:34 -3.43197 -76.06111 37032 ft 513 kts 184°
2026-05-04 13:35 -3.53867 -76.07072 37035 ft 513 kts 184°
2026-05-04 13:36 -3.60924 -76.07708 37037 ft 513 kts 184°
2026-05-04 13:36 -3.68089 -76.08354 37032 ft 514 kts 184°
2026-05-04 13:37 -3.75159 -76.08991 37035 ft 514 kts 184°
2026-05-04 13:37 -3.82322 -76.09636 37036 ft 513 kts 184°
2026-05-04 13:38 -3.89439 -76.10278 37039 ft 513 kts 184°
2026-05-04 13:38 -3.96504 -76.10914 37035 ft 513 kts 184°
2026-05-04 13:39 -4.03617 -76.11556 37038 ft 513 kts 184°
2026-05-04 13:39 -4.10738 -76.12198 37039 ft 513 kts 184°
2026-05-04 13:40 -4.17858 -76.12840 37042 ft 514 kts 184°
2026-05-04 13:40 -4.24974 -76.13478 37040 ft 514 kts 184°
2026-05-04 13:41 -4.32093 -76.14116 37046 ft 514 kts 184°
2026-05-04 13:41 -4.39220 -76.14754 38569 ft 514 kts 187°
2026-05-04 13:42 -4.49916 -76.15715 38414 ft 518 kts 184°
2026-05-04 13:42 -4.57120 -76.16362 37917 ft 526 kts 185°
2026-05-04 13:43 -4.59614 -76.16585 37446 ft 536 kts 185°
2026-05-04 13:43 -4.64562 -76.17029 37232 ft 543 kts 185°
2026-05-04 13:43 -4.68345 -76.17369 37065 ft 547 kts 185°
2026-05-04 13:43 -4.72144 -76.17710 37000 ft 548 kts 185°
2026-05-04 13:44 -4.79750 -76.18394 36999 ft 551 kts 185°
2026-05-04 13:44 -4.87399 -76.19081 37005 ft 552 kts 185°
2026-05-04 13:45 -4.95066 -76.19770 37006 ft 554 kts 185°
2026-05-04 13:45 -5.02759 -76.20462 37001 ft 556 kts 185°
2026-05-04 13:46 -5.09165 -76.21038 37001 ft 557 kts 185°
2026-05-04 13:46 -5.16894 -76.21733 37003 ft 558 kts 185°
2026-05-04 13:47 -5.24623 -76.22429 37002 ft 558 kts 185°
2026-05-04 13:47 -5.32370 -76.23126 37002 ft 559 kts 185°
2026-05-04 13:48 -5.40117 -76.23897 37003 ft 560 kts 186°
2026-05-04 13:48 -5.47863 -76.24809 37002 ft 561 kts 186°
2026-05-04 13:49 -5.55617 -76.25732 37002 ft 561 kts 186°
2026-05-04 13:49 -5.63370 -76.26629 37000 ft 561 kts 186°
2026-05-04 13:50 -5.71126 -76.27514 36958 ft 564 kts 186°
2026-05-04 13:50 -5.78958 -76.28407 37007 ft 569 kts 186°
2026-05-04 13:51 -5.86867 -76.29311 37015 ft 575 kts 186°
2026-05-04 13:51 -5.94858 -76.30227 37011 ft 580 kts 186°
2026-05-04 13:52 -6.06968 -76.31614 37014 ft 587 kts 186°
2026-05-04 13:53 -6.15111 -76.32548 37010 ft 591 kts 186°
2026-05-04 13:53 -6.23310 -76.33488 37008 ft 595 kts 186°
2026-05-04 13:54 -6.35688 -76.34909 37013 ft 599 kts 186°
2026-05-04 13:55 -6.48151 -76.36338 37013 ft 601 kts 186°
2026-05-04 13:55 -6.60660 -76.37633 37011 ft 604 kts 184°
2026-05-04 13:56 -6.69037 -76.38363 36999 ft 606 kts 184°
2026-05-04 13:57 -6.81654 -76.39490 37015 ft 607 kts 184°
2026-05-04 13:58 -6.98486 -76.41054 37005 ft 608 kts 184°
2026-05-04 13:58 -7.11132 -76.42223 37010 ft 609 kts 184°
2026-05-04 13:59 -7.19573 -76.43005 37005 ft 610 kts 184°
2026-05-04 14:00 -7.32197 -76.44170 37001 ft 610 kts 184°
2026-05-04 14:00 -7.44915 -76.45347 37003 ft 609 kts 184°
2026-05-04 14:01 -7.53204 -76.46116 37003 ft 609 kts 184°
2026-05-04 14:02 -7.65921 -76.47294 37003 ft 609 kts 184°
2026-05-04 14:02 -7.74357 -76.48076 36998 ft 609 kts 184°
2026-05-04 14:03 -7.82746 -76.48854 37001 ft 610 kts 184°
2026-05-04 14:03 -7.91206 -76.49638 37001 ft 610 kts 184°
2026-05-04 14:04 -8.03903 -76.50817 37012 ft 612 kts 184°
2026-05-04 14:04 -8.12404 -76.51606 36993 ft 614 kts 184°
2026-05-04 14:05 -8.25129 -76.52789 36994 ft 611 kts 184°
2026-05-04 14:06 -8.33590 -76.53575 36998 ft 610 kts 184°
2026-05-04 14:06 -8.42026 -76.54360 37004 ft 609 kts 184°
2026-05-04 14:07 -8.50483 -76.55150 36994 ft 610 kts 185°
2026-05-04 14:07 -8.58942 -76.56049 36997 ft 611 kts 186°
2026-05-04 14:08 -8.67401 -76.57009 37005 ft 613 kts 186°
2026-05-04 14:08 -8.75881 -76.57955 36993 ft 613 kts 185°
2026-05-04 14:09 -8.88608 -76.59345 37040 ft 612 kts 185°
2026-05-04 14:10 -9.01327 -76.60736 36987 ft 613 kts 185°
2026-05-04 14:10 -9.09801 -76.61666 37014 ft 612 kts 186°
2026-05-04 14:11 -9.18286 -76.62596 37002 ft 614 kts 186°
2026-05-04 14:11 -9.31012 -76.63993 36992 ft 617 kts 185°
2026-05-04 14:12 -9.39537 -76.64925 36992 ft 617 kts 185°
2026-05-04 14:13 -9.52340 -76.66322 36999 ft 616 kts 186°
2026-05-04 14:13 -9.60861 -76.67249 36987 ft 616 kts 186°
2026-05-04 14:14 -9.69385 -76.68177 36984 ft 615 kts 186°
2026-05-04 14:14 -9.82143 -76.69570 36990 ft 615 kts 186°
2026-05-04 14:15 -9.99126 -76.71427 37001 ft 611 kts 189°
2026-05-04 14:16 -10.11806 -76.72811 37004 ft 611 kts 189°
2026-05-04 14:17 -10.24498 -76.74201 36982 ft 612 kts 189°
2026-05-04 14:18 -10.37165 -76.75587 36980 ft 607 kts 188°
2026-05-04 14:19 -10.53921 -76.77423 36985 ft 604 kts 189°
2026-05-04 14:19 -10.62272 -76.78343 37006 ft 603 kts 189°
2026-05-04 14:20 -10.70623 -76.79258 36999 ft 603 kts 189°
2026-05-04 14:20 -10.78967 -76.80195 37013 ft 602 kts 191°
2026-05-04 14:21 -10.91194 -76.82878 37021 ft 599 kts 198°
2026-05-04 14:21 -10.99295 -76.84951 36985 ft 602 kts 198°
2026-05-04 14:22 -11.07423 -76.86972 36974 ft 598 kts 198°
2026-05-04 14:22 -11.15510 -76.88939 37011 ft 596 kts 198°
2026-05-04 14:23 -11.27633 -76.91890 37020 ft 599 kts 198°
2026-05-04 14:24 -11.35738 -76.93871 37003 ft 599 kts 198°
2026-05-04 14:24 -11.43664 -76.95810 36972 ft 599 kts 198°
2026-05-04 14:25 -11.51762 -76.97789 36979 ft 598 kts 198°
2026-05-04 14:25 -11.63909 -77.00764 36985 ft 600 kts 198°
2026-05-04 14:26 -11.72026 -77.02753 36989 ft 600 kts 198°
2026-05-04 14:26 -11.80081 -77.04727 37011 ft 598 kts 198°
2026-05-04 14:27 -11.88171 -77.06712 37012 ft 599 kts 198°
2026-05-04 14:27 -11.96279 -77.08697 37004 ft 600 kts 196°
2026-05-04 14:28 -12.04620 -77.09535 37006 ft 607 kts 180°
2026-05-04 14:28 -12.12993 -77.08487 36994 ft 607 kts 165°
2026-05-04 14:29 -12.29296 -77.03966 37000 ft 607 kts 163°
2026-05-04 14:30 -12.37461 -77.01768 37001 ft 607 kts 164°
2026-05-04 14:31 -12.49728 -76.98552 37001 ft 606 kts 165°
2026-05-04 14:32 -12.64683 -76.94615 37003 ft 606 kts 164°
2026-05-04 14:32 -12.72843 -76.92457 37000 ft 606 kts 164°
2026-05-04 14:33 -12.81012 -76.90295 37002 ft 606 kts 164°
2026-05-04 14:33 -12.89170 -76.88137 37001 ft 605 kts 164°
2026-05-04 14:34 -12.97323 -76.85978 37001 ft 605 kts 164°
2026-05-04 14:34 -13.05479 -76.83817 37001 ft 605 kts 164°
2026-05-04 14:35 -13.13638 -76.81654 37002 ft 605 kts 164°
2026-05-04 14:35 -13.21790 -76.79490 37001 ft 605 kts 164°
2026-05-04 14:36 -13.29946 -76.77325 37004 ft 605 kts 164°
2026-05-04 14:36 -13.38108 -76.75156 37003 ft 606 kts 164°
2026-05-04 14:37 -13.46267 -76.72987 37000 ft 606 kts 164°
2026-05-04 14:37 -13.54431 -76.70814 36998 ft 606 kts 164°
2026-05-04 14:38 -13.62590 -76.68642 37005 ft 606 kts 164°
2026-05-04 14:38 -13.70752 -76.66467 36999 ft 606 kts 164°
2026-05-04 14:39 -13.78913 -76.64291 37002 ft 606 kts 164°
2026-05-04 14:39 -13.87071 -76.62114 37001 ft 606 kts 164°
2026-05-04 14:40 -13.99301 -76.58847 37001 ft 605 kts 164°
2026-05-04 14:40 -14.07458 -76.56667 37001 ft 605 kts 164°
2026-05-04 14:41 -14.15556 -76.54500 37004 ft 605 kts 164°
2026-05-04 14:42 -14.31923 -76.50110 37001 ft 606 kts 166°
2026-05-04 14:42 -14.40071 -76.47896 37002 ft 606 kts 166°
2026-05-04 14:43 -14.48164 -76.45687 37002 ft 606 kts 166°
2026-05-04 14:43 -14.56308 -76.43467 37001 ft 606 kts 166°
2026-05-04 14:44 -14.64458 -76.41246 37001 ft 606 kts 166°
2026-05-04 14:44 -14.72608 -76.39025 37001 ft 606 kts 166°
2026-05-04 14:45 -14.80752 -76.36803 37001 ft 606 kts 166°
2026-05-04 14:45 -14.88905 -76.34576 37001 ft 606 kts 166°
2026-05-04 14:46 -14.97060 -76.32348 37001 ft 606 kts 166°
2026-05-04 14:46 -15.05203 -76.30120 37001 ft 606 kts 166°
2026-05-04 14:47 -15.13351 -76.27890 37005 ft 606 kts 166°
2026-05-04 14:47 -15.21507 -76.25655 36998 ft 606 kts 166°
2026-05-04 14:48 -15.29658 -76.23421 37000 ft 606 kts 166°
2026-05-04 14:48 -15.37816 -76.21182 37002 ft 606 kts 166°
2026-05-04 14:49 -15.45952 -76.18948 37001 ft 606 kts 166°
2026-05-04 14:49 -15.54053 -76.16722 37001 ft 606 kts 166°
2026-05-04 14:50 -15.62200 -76.14481 37001 ft 606 kts 166°
2026-05-04 14:50 -15.70347 -76.12238 37001 ft 606 kts 166°
2026-05-04 14:51 -15.78485 -76.09996 37001 ft 606 kts 166°
2026-05-04 14:51 -15.86634 -76.07749 37001 ft 606 kts 166°
2026-05-04 14:52 -15.94776 -76.05501 37002 ft 606 kts 166°
2026-05-04 14:52 -16.02917 -76.03253 37001 ft 606 kts 166°
2026-05-04 14:53 -16.11073 -76.00998 37005 ft 606 kts 166°
2026-05-04 14:53 -16.19221 -75.98744 36997 ft 606 kts 166°
2026-05-04 14:54 -16.27369 -75.96487 37002 ft 606 kts 166°
2026-05-04 14:54 -16.35508 -75.94232 37001 ft 606 kts 166°
2026-05-04 14:55 -16.43656 -75.91972 37001 ft 606 kts 166°
2026-05-04 14:55 -16.51798 -75.89711 37002 ft 606 kts 166°
2026-05-04 14:56 -16.59943 -75.87448 37001 ft 606 kts 166°
2026-05-04 14:56 -16.68085 -75.85183 37001 ft 606 kts 166°
2026-05-04 14:57 -16.76231 -75.82916 37001 ft 606 kts 166°
2026-05-04 14:57 -16.84319 -75.80662 37000 ft 606 kts 166°
2026-05-04 14:58 -16.92459 -75.78393 37002 ft 606 kts 166°
2026-05-04 14:58 -17.00602 -75.76120 37002 ft 606 kts 166°
2026-05-04 14:59 -17.08745 -75.73845 37001 ft 606 kts 166°
2026-05-04 15:00 -17.20962 -75.70428 37001 ft 606 kts 166°
2026-05-04 15:00 -17.29099 -75.68150 37002 ft 606 kts 166°
2026-05-04 15:01 -17.41312 -75.64726 37001 ft 606 kts 166°
2026-05-04 15:01 -17.49454 -75.62441 37001 ft 606 kts 166°
2026-05-04 15:02 -17.57590 -75.60156 37001 ft 606 kts 166°
2026-05-04 15:02 -17.65738 -75.57865 37001 ft 606 kts 166°
2026-05-04 15:03 -17.73875 -75.55575 37001 ft 606 kts 166°
2026-05-04 15:03 -17.82017 -75.53281 37001 ft 606 kts 166°
2026-05-04 15:04 -17.90153 -75.50987 37001 ft 606 kts 166°
2026-05-04 15:04 -17.98293 -75.48690 37002 ft 606 kts 166°
2026-05-04 15:05 -18.06433 -75.46390 37006 ft 606 kts 166°
2026-05-04 15:05 -18.14580 -75.44086 36997 ft 606 kts 166°
2026-05-04 15:06 -18.22722 -75.41781 37001 ft 606 kts 166°
2026-05-04 15:07 -18.34938 -75.38319 37003 ft 606 kts 166°
2026-05-04 15:07 -18.43062 -75.35935 36999 ft 606 kts 165°
2026-05-04 15:08 -18.51118 -75.33490 37002 ft 606 kts 165°
2026-05-04 15:08 -18.59268 -75.31014 37000 ft 606 kts 165°
2026-05-04 15:09 -18.67379 -75.28568 37002 ft 606 kts 165°
2026-05-04 15:09 -18.75431 -75.26146 37001 ft 606 kts 165°
2026-05-04 15:10 -18.87580 -75.22485 37002 ft 606 kts 165°
2026-05-04 15:11 -18.99743 -75.18810 37002 ft 606 kts 165°
2026-05-04 15:11 -19.07888 -75.16347 37001 ft 606 kts 165°
2026-05-04 15:12 -19.15943 -75.13908 37002 ft 606 kts 165°
2026-05-04 15:12 -19.24047 -75.11452 37002 ft 606 kts 165°
2026-05-04 15:13 -19.32148 -75.08994 37002 ft 606 kts 165°
2026-05-04 15:13 -19.40250 -75.06534 37002 ft 606 kts 165°
2026-05-04 15:14 -19.48356 -75.04070 37002 ft 606 kts 165°
2026-05-04 15:14 -19.56452 -75.01606 37001 ft 606 kts 165°
2026-05-04 15:15 -19.64556 -74.99137 37004 ft 606 kts 165°
2026-05-04 15:15 -19.72667 -74.96664 37000 ft 606 kts 165°
2026-05-04 15:16 -19.84828 -74.92950 37002 ft 606 kts 165°
2026-05-04 15:17 -19.96982 -74.89233 37000 ft 606 kts 165°
2026-05-04 15:17 -20.09140 -74.85508 36998 ft 606 kts 165°
2026-05-04 15:18 -20.15876 -74.83442 37002 ft 606 kts 165°
2026-05-04 15:19 -20.28028 -74.79710 37001 ft 606 kts 165°
2026-05-04 15:19 -20.40178 -74.75972 37002 ft 606 kts 165°
2026-05-04 15:20 -20.48269 -74.73480 37002 ft 606 kts 165°
2026-05-04 15:20 -20.56368 -74.70982 37002 ft 606 kts 165°
2026-05-04 15:21 -20.64461 -74.68484 37002 ft 606 kts 165°
2026-05-04 15:22 -20.76611 -74.64728 37002 ft 606 kts 165°
2026-05-04 15:22 -20.88751 -74.60968 37001 ft 606 kts 165°
2026-05-04 15:23 -20.96845 -74.58458 37001 ft 606 kts 165°
2026-05-04 15:23 -21.04943 -74.55944 37001 ft 606 kts 165°
2026-05-04 15:24 -21.21137 -74.50907 37001 ft 606 kts 165°
2026-05-04 15:25 -21.29228 -74.48389 37001 ft 606 kts 164°
2026-05-04 15:26 -21.41371 -74.44603 37001 ft 606 kts 164°
2026-05-04 15:26 -21.53460 -74.40826 37001 ft 606 kts 164°
2026-05-04 15:27 -21.65604 -74.37025 37006 ft 606 kts 164°
2026-05-04 15:28 -21.77755 -74.33215 37000 ft 606 kts 164°
2026-05-04 15:29 -21.89901 -74.29401 37001 ft 606 kts 164°
2026-05-04 15:30 -22.18232 -74.20476 37001 ft 606 kts 164°
2026-05-04 15:31 -22.30368 -74.16642 37001 ft 606 kts 164°
2026-05-04 15:32 -22.50588 -74.10238 37001 ft 606 kts 164°
2026-05-04 15:34 -22.70811 -74.03813 36998 ft 606 kts 164°
2026-05-04 15:34 -22.82950 -73.99947 37002 ft 606 kts 164°
2026-05-04 15:35 -22.95086 -73.96075 37001 ft 606 kts 164°
2026-05-04 15:36 -23.07217 -73.92197 37001 ft 606 kts 164°
2026-05-04 15:36 -23.15307 -73.89607 37001 ft 606 kts 164°
2026-05-04 15:37 -23.23392 -73.87016 37001 ft 606 kts 164°
2026-05-04 15:37 -23.31475 -73.84421 37005 ft 606 kts 164°
2026-05-04 15:38 -23.39568 -73.81820 37001 ft 606 kts 164°
2026-05-04 15:38 -23.47662 -73.79216 37002 ft 606 kts 164°
2026-05-04 15:39 -23.55750 -73.76610 36998 ft 606 kts 164°
2026-05-04 15:40 -23.67825 -73.72713 37001 ft 606 kts 164°
2026-05-04 15:40 -23.75908 -73.70100 37001 ft 606 kts 164°
2026-05-04 15:41 -23.83995 -73.67482 37001 ft 606 kts 164°
2026-05-04 15:41 -23.92075 -73.64863 37001 ft 606 kts 164°
2026-05-04 15:42 -24.00149 -73.62242 37001 ft 606 kts 164°
2026-05-04 15:42 -24.08237 -73.59618 37001 ft 606 kts 164°
2026-05-04 15:43 -24.16309 -73.56998 37001 ft 606 kts 164°
2026-05-04 15:43 -24.24390 -73.54371 37002 ft 606 kts 164°
2026-05-04 15:44 -24.32475 -73.51739 37001 ft 606 kts 164°
2026-05-04 15:44 -24.40558 -73.49102 37002 ft 606 kts 164°
2026-05-04 15:45 -24.48634 -73.46465 37003 ft 606 kts 164°
2026-05-04 15:45 -24.56716 -73.43823 37000 ft 606 kts 164°
2026-05-04 15:46 -24.64797 -73.41177 37001 ft 606 kts 164°
2026-05-04 15:46 -24.72883 -73.38526 37002 ft 606 kts 164°
2026-05-04 15:47 -24.80965 -73.35873 37001 ft 606 kts 164°
2026-05-04 15:47 -24.89043 -73.33217 37003 ft 606 kts 164°
2026-05-04 15:48 -24.97120 -73.30558 37002 ft 606 kts 164°
2026-05-04 15:48 -25.09243 -73.26561 36999 ft 606 kts 164°
2026-05-04 15:49 -25.17322 -73.23892 37002 ft 606 kts 164°
2026-05-04 15:49 -25.25404 -73.21219 37001 ft 606 kts 164°
2026-05-04 15:50 -25.33481 -73.18544 37001 ft 606 kts 164°
2026-05-04 15:50 -25.41506 -73.15882 37002 ft 606 kts 164°
2026-05-04 15:51 -25.49579 -73.13200 37001 ft 606 kts 164°
2026-05-04 15:51 -25.57650 -73.10515 37001 ft 606 kts 164°
2026-05-04 15:52 -25.65723 -73.07826 37001 ft 606 kts 164°
2026-05-04 15:52 -25.73798 -73.05133 37006 ft 606 kts 164°
2026-05-04 15:53 -25.81873 -73.02435 36998 ft 606 kts 164°
2026-05-04 15:53 -25.89949 -72.99734 37000 ft 606 kts 164°
2026-05-04 15:54 -25.98022 -72.97029 37002 ft 606 kts 163°
2026-05-04 15:54 -26.06100 -72.94319 37001 ft 606 kts 163°
2026-05-04 15:55 -26.14169 -72.91608 37001 ft 606 kts 163°
2026-05-04 15:55 -26.22237 -72.88894 37001 ft 606 kts 163°
2026-05-04 15:56 -26.30313 -72.86173 37000 ft 606 kts 163°
2026-05-04 15:56 -26.38381 -72.83450 37002 ft 606 kts 163°
2026-05-04 15:57 -26.46449 -72.80724 37001 ft 606 kts 163°
2026-05-04 15:57 -26.54517 -72.77993 37006 ft 606 kts 163°
2026-05-04 15:58 -26.62592 -72.75257 36998 ft 606 kts 163°
2026-05-04 15:58 -26.70662 -72.72517 36999 ft 606 kts 163°
2026-05-04 15:59 -26.78737 -72.69773 37002 ft 606 kts 163°
2026-05-04 15:59 -26.86809 -72.67024 37001 ft 606 kts 163°
2026-05-04 16:00 -26.94870 -72.64276 37001 ft 606 kts 163°
2026-05-04 16:00 -27.02935 -72.61522 37001 ft 606 kts 163°
2026-05-04 16:01 -27.11002 -72.58764 37001 ft 606 kts 163°
2026-05-04 16:01 -27.19065 -72.56002 37001 ft 606 kts 163°
2026-05-04 16:02 -27.27122 -72.53238 37001 ft 606 kts 163°
2026-05-04 16:03 -27.39169 -72.49098 37001 ft 606 kts 163°
2026-05-04 16:03 -27.47227 -72.46323 37001 ft 606 kts 163°
2026-05-04 16:04 -27.55285 -72.43545 37001 ft 606 kts 163°
2026-05-04 16:04 -27.67382 -72.39385 37002 ft 606 kts 163°
2026-05-04 16:05 -27.74139 -72.37059 37002 ft 606 kts 163°
2026-05-04 16:06 -27.86235 -72.32883 37001 ft 606 kts 163°
2026-05-04 16:07 -28.02358 -72.27301 37001 ft 606 kts 163°
2026-05-04 16:08 -28.18434 -72.21717 37004 ft 606 kts 163°
2026-05-04 16:09 -28.38607 -72.14685 36999 ft 606 kts 163°
2026-05-04 16:10 -28.54727 -72.09044 37001 ft 606 kts 163°
2026-05-04 16:11 -28.70841 -72.03365 37002 ft 606 kts 163°
2026-05-04 16:12 -28.94990 -71.94822 37001 ft 606 kts 163°
2026-05-04 16:13 -29.11093 -71.89103 37005 ft 606 kts 163°
2026-05-04 16:14 -29.27204 -71.83362 36997 ft 606 kts 163°
2026-05-04 16:16 -29.47330 -71.76162 37001 ft 606 kts 163°
2026-05-04 16:17 -29.67465 -71.68994 37001 ft 606 kts 163°
2026-05-04 16:18 -29.83561 -71.63243 37005 ft 606 kts 163°
2026-05-04 16:19 -30.03686 -71.56022 36999 ft 605 kts 165°
2026-05-04 16:20 -30.23711 -71.48806 37001 ft 604 kts 165°
2026-05-04 16:21 -30.35336 -71.43157 37007 ft 606 kts 153°
2026-05-04 16:22 -30.42836 -71.38698 36995 ft 606 kts 153°
2026-05-04 16:23 -30.65502 -71.25484 37007 ft 608 kts 154°
2026-05-04 16:25 -30.88272 -71.12232 37010 ft 612 kts 153°
2026-05-04 16:26 -31.14955 -70.96604 37002 ft 614 kts 153°
2026-05-04 16:27 -31.22578 -70.92121 36657 ft 610 kts 153°
2026-05-04 16:28 -31.34346 -70.86669 33815 ft 613 kts 171°
2026-05-04 16:28 -31.46473 -70.85453 30842 ft 560 kts 186°
2026-05-04 16:29 -31.61379 -70.85465 27001 ft 519 kts 185°
2026-05-04 16:30 -31.71536 -70.85329 25734 ft 461 kts 186°
2026-05-04 16:31 -31.77819 -70.85241 24922 ft 458 kts 185°
2026-05-04 16:31 -31.87716 -70.84891 23635 ft 490 kts 184°
2026-05-04 16:32 -31.97830 -70.84489 22130 ft 464 kts 185°
2026-05-04 16:33 -32.04104 -70.84253 21286 ft 443 kts 185°
2026-05-04 16:33 -32.10445 -70.84058 20175 ft 450 kts 183°
2026-05-04 16:34 -32.16316 -70.83828 19570 ft 394 kts 183°
2026-05-04 16:34 -32.18971 -70.83730 19226 ft 372 kts 184°
2026-05-04 16:35 -32.26570 -70.83467 18432 ft 357 kts 183°
2026-05-04 16:35 -32.34091 -70.83208 17318 ft 370 kts 183°
2026-05-04 16:36 -32.36665 -70.83116 16927 ft 371 kts 182°
2026-05-04 16:36 -32.41761 -70.82929 16167 ft 367 kts 182°
2026-05-04 16:37 -32.46849 -70.82743 15406 ft 364 kts 182°
2026-05-04 16:37 -32.49374 -70.82652 15016 ft 362 kts 182°
2026-05-04 16:37 -32.54378 -70.82471 14282 ft 358 kts 181°
2026-05-04 16:38 -32.59359 -70.82291 13446 ft 359 kts 181°
2026-05-04 16:39 -32.66715 -70.82023 12745 ft 334 kts 180°
2026-05-04 16:39 -32.71022 -70.81866 12464 ft 290 kts 180°
2026-05-04 16:40 -32.74953 -70.81724 12233 ft 283 kts 181°
2026-05-04 16:40 -32.79079 -70.81581 11650 ft 304 kts 180°
2026-05-04 16:41 -32.82805 -70.81444 11039 ft 306 kts 180°
2026-05-04 16:41 -32.89208 -70.81211 10053 ft 307 kts 179°
2026-05-04 16:42 -32.95527 -70.80924 9280 ft 295 kts 178°
2026-05-04 16:43 -32.99703 -70.80699 8453 ft 300 kts 178°
2026-05-04 16:43 -33.03678 -70.80488 7910 ft 271 kts 178°
2026-05-04 16:43 -33.05515 -70.80392 7588 ft 257 kts 178°
2026-05-04 16:44 -33.11831 -70.80056 6513 ft 198 kts 178°
2026-05-04 16:45 -33.14610 -70.79906 5980 ft 201 kts 178°
2026-05-04 16:46 -33.18681 -70.79690 5206 ft 189 kts 178°
2026-05-04 16:46 -33.21307 -70.79549 4737 ft 188 kts 178°
2026-05-04 16:47 -33.23862 -70.79413 4237 ft 179 kts 178°
2026-05-04 16:47 -33.26379 -70.79273 3785 ft 180 kts 178°
2026-05-04 16:48 -33.30080 -70.79077 3062 ft 176 kts 178°
2026-05-04 16:48 -33.31276 -70.79014 2827 ft 170 kts 177°
2026-05-04 16:49 -33.32052 -70.78970 2684 ft 161 kts 177°
2026-05-04 16:49 -33.33355 -70.78899 2440 ft 159 kts 178°
2026-05-04 16:50 -33.35205 -70.78800 2078 ft 158 kts 178°
2026-05-04 16:50 -33.37362 -70.78684 1653 ft 152 kts 178°
2026-05-04 16:51 -33.39059 -70.78593 1569 ft 58 kts 177°
2026-05-04 16:51 -33.39412 -70.78579 1569 ft 32 kts 184°
2026-05-04 16:51 -33.39731 -70.78725 1569 ft 14 kts 225°
2026-05-04 16:52 -33.39674 -70.78884 1569 ft 14 kts 359°
2026-05-04 16:52 -33.39575 -70.78887 1569 ft 14 kts 359°
2026-05-04 16:53 -33.39493 -70.79017 1569 ft 5 kts 267°
2026-05-04 16:53 -33.39556 -70.79058 1569 ft 0 kts 192°